Tracking 27112 objects as of 27-Mar-2023
HD Live streaming from Space Station
objects crossing your sky now

STARLINK-1585

Track STARLINK-1585 now!
10-day predictions
STARLINK-1585 is classified as:


NORAD ID: 46117
Int'l Code: 2020-057A
Perigee: 553.4 km
Apogee: 555.1 km
Inclination: 53.1 °
Period: 95.6 minutes
Semi major axis: 6925 km
RCS: Unknown
Launch date: August 18, 2020
Source: United States (US)
Launch site: AIR FORCE EASTERN TEST RANGE (AFETR)
Your satellite tracking list
Your tracking list is empty




NASA's NSSDC Master Catalog

Two Line Element Set (TLE):
1 46117U 20057A   23086.34748817  .00016186  00000-0  11021-2 0  9993
2 46117  53.0527  97.4809 0001278  94.6764 265.4371 15.06430043143815
Source of the keplerian elements: AFSPC